DLH7JF EDDF-EDDM

Flight info

Callsign DLH7JF
Flight time N/A
Altitude 23000
Route CINDY8S/18 CINDY Z74 HAREM T104 ROKIL ROKIL1A
Aircraft B789/H-SDE1E2E3FGHIJ2J3J4J5M1RWXY/LB1D1

Departure

Time 2026-04-17 21:15
Airport Frankfurt Main Airport (EDDF)

Arrival

Time N/A
Airport Munich Airport (EDDM)
Time Latitude Longitude Altitude Speed Heading
2026-04-17 20:35 50.04644 8.55944 366 ft 0 kts 340°
2026-04-17 20:59 50.04627 8.55953 365 ft 4 kts 341°
2026-04-17 21:00 50.04610 8.55962 365 ft 4 kts 342°
2026-04-17 21:00 50.04586 8.55974 365 ft 4 kts 330°
2026-04-17 21:00 50.04569 8.56013 361 ft 4 kts 266°
2026-04-17 21:00 50.04574 8.56054 365 ft 4 kts 249°
2026-04-17 21:01 50.04582 8.56083 366 ft 0 kts 250°
2026-04-17 21:05 50.04578 8.56068 366 ft 3 kts 250°
2026-04-17 21:05 50.04565 8.56013 364 ft 8 kts 243°
2026-04-17 21:05 50.04516 8.55958 367 ft 9 kts 203°
2026-04-17 21:06 50.04455 8.55921 369 ft 9 kts 196°
2026-04-17 21:06 50.04386 8.55915 363 ft 12 kts 174°
2026-04-17 21:06 50.04292 8.55959 363 ft 15 kts 167°
2026-04-17 21:06 50.04242 8.55919 365 ft 9 kts 234°
2026-04-17 21:07 50.04206 8.55805 359 ft 14 kts 246°
2026-04-17 21:07 50.04168 8.55642 366 ft 17 kts 250°
2026-04-17 21:07 50.04145 8.55546 363 ft 3 kts 249°
2026-04-17 21:07 50.04138 8.55517 363 ft 0 kts 249°
2026-04-17 21:08 50.04134 8.55504 362 ft 4 kts 249°
2026-04-17 21:08 50.04113 8.55416 362 ft 13 kts 249°
2026-04-17 21:08 50.04081 8.55283 365 ft 13 kts 249°
2026-04-17 21:08 50.04049 8.55150 364 ft 14 kts 249°
2026-04-17 21:09 50.04015 8.55006 363 ft 14 kts 250°
2026-04-17 21:09 50.03979 8.54848 366 ft 17 kts 249°
2026-04-17 21:09 50.03931 8.54652 360 ft 21 kts 249°
2026-04-17 21:09 50.03876 8.54427 358 ft 23 kts 247°
2026-04-17 21:10 50.03807 8.54240 361 ft 16 kts 244°
2026-04-17 21:10 50.03765 8.54079 354 ft 17 kts 249°
2026-04-17 21:10 50.03722 8.53903 356 ft 18 kts 249°
2026-04-17 21:10 50.03678 8.53712 354 ft 19 kts 250°
2026-04-17 21:11 50.03628 8.53511 350 ft 20 kts 248°
2026-04-17 21:11 50.03579 8.53312 353 ft 18 kts 249°
2026-04-17 21:11 50.03536 8.53134 350 ft 14 kts 249°
2026-04-17 21:11 50.03509 8.53018 351 ft 11 kts 250°
2026-04-17 21:12 50.03479 8.52900 349 ft 12 kts 246°
2026-04-17 21:12 50.03443 8.52770 350 ft 11 kts 248°
2026-04-17 21:12 50.03425 8.52699 337 ft 8 kts 248°
2026-04-17 21:12 50.03402 8.52616 336 ft 7 kts 236°
2026-04-17 21:13 50.03373 8.52598 337 ft 5 kts 189°
2026-04-17 21:13 50.03336 8.52596 341 ft 6 kts 180°
2026-04-17 21:13 50.03329 8.52596 340 ft 1 kts 180°
2026-04-17 21:13 50.03327 8.52596 339 ft 0 kts 180°
2026-04-17 21:14 50.03286 8.52595 337 ft 26 kts 180°
2026-04-17 21:14 50.02855 8.52597 339 ft 98 kts 180°
2026-04-17 21:15 50.01961 8.52603 342 ft 161 kts 180°
2026-04-17 21:15 50.00779 8.52621 949 ft 170 kts 175°
2026-04-17 21:15 49.99558 8.52681 1827 ft 181 kts 177°
2026-04-17 21:15 49.98312 8.52833 2804 ft 182 kts 174°
2026-04-17 21:16 49.97087 8.53400 3463 ft 193 kts 147°
2026-04-17 21:16 49.96058 8.55020 3739 ft 225 kts 127°
2026-04-17 21:16 49.95103 8.57134 3941 ft 253 kts 123°
2026-04-17 21:16 49.94211 8.59434 4009 ft 249 kts 120°
2026-04-17 21:17 49.93340 8.61781 4073 ft 244 kts 120°
2026-04-17 21:17 49.92540 8.63994 4799 ft 243 kts 119°
2026-04-17 21:17 49.91758 8.66357 5843 ft 245 kts 117°
2026-04-17 21:17 49.90980 8.68719 6744 ft 251 kts 119°
2026-04-17 21:18 49.90167 8.71089 7767 ft 251 kts 119°
2026-04-17 21:18 49.89375 8.73553 8547 ft 257 kts 116°
2026-04-17 21:18 49.88583 8.76016 9461 ft 261 kts 122°
2026-04-17 21:18 49.87537 8.78499 9545 ft 284 kts 127°
2026-04-17 21:19 49.86418 8.80984 9869 ft 283 kts 123°
2026-04-17 21:19 49.85424 8.83693 10381 ft 297 kts 119°
2026-04-17 21:19 49.84411 8.86643 10600 ft 325 kts 119°
2026-04-17 21:19 49.83271 8.89824 10887 ft 346 kts 120°
2026-04-17 21:20 49.82057 8.93113 11020 ft 355 kts 120°
2026-04-17 21:20 49.80847 8.96423 11028 ft 350 kts 120°
2026-04-17 21:20 49.79661 8.99701 11031 ft 349 kts 120°
2026-04-17 21:20 49.78467 9.02982 11033 ft 349 kts 120°
2026-04-17 21:21 49.77274 9.06244 11032 ft 349 kts 120°
2026-04-17 21:21 49.76176 9.09543 11021 ft 348 kts 109°